Starlink 6367

operational
NORAD ID: 57376 Int'l Des: 2023-099 Owner: SPXS Country: US Constellation: starlink
LEOCIRCULAR

Über Starlink 6367

Beschreibung wird geladen...

Live-Position

3D-Globus wird geladen...

Nächste Überflüge

Höhenverlauf

Altitude vs Time

uPlot chart will show altitude changes over time

Zweizeiliger Elementsatz

1 57376U 23099BA 26061.59856190 .00001918 00000-0 15699-3 0 9991
2 57376 43.0016 274.1492 0001404 272.3982 87.6699 15.02538484145202
Epoch: 2. März 2026 • Age: 42 hours

Aktueller Status

Höhe 562.5 km
Geschwindigkeit 7.59 km/s
Subsatellitenpunkt 40.49°N, 95.1°W
Startdatum 16. Juli 2023
Alter 2.6 years
Typ internet

Technische Details

Klassifizierung Payload
Masse 305.00 kg
Trockenmasse 290.00 kg
Gesamtmasse 305.00 kg
Länge 0.20 m
Durchmesser 2.80 m
Spannweite 9.00 m
Form Box + pan
Hersteller SPXS
Bus-Typ Starlink
Phasenstatus In Orbit
Besitzer/Staat SPXS/US

Große Konstellationen

Loading constellations...